Regional Weather Roundup
Issued by NWS Raleigh/Durham, NC

Current Version | Previous Version | Text Only | Print | Product List | Glossary On
Versions: 1 2 3 4 5 6 7 8 9 10 11 12 13 14 15 16 17 18 19 20 21 22 23 24 25 26 27 28
000 ASUS42 KRAH 200510 RWRRAH NORTH CAROLINA WEATHER ROUNDUP NATIONAL WEATHER SERVICE RALEIGH NC 100 AM EDT FRI OCT 20 2017 NOTE: "FAIR" INDICATES FEW OR NO CLOUDS BELOW 12,000 FEET WITH NO SIGNIFICANT WEATHER AND/OR OBSTRUCTIONS TO VISIBILITY. NCZ001-053-055-056-065-067-200600- WESTERN NORTH CAROLINA CITY SKY/WX TMP DP RH WIND PRES REMARKS ASHEVILLE FAIR 45 41 86 CALM 30.31F JEFFERSON FAIR 52 33 48 CALM 30.31S MORGANTON FAIR 42 42 100 CALM 30.31R HICKORY FAIR 51 49 92 NW5 30.26S RUTHERFORDTON FAIR 47 47 100 NW3 30.27S MOUNT AIRY FAIR 50 46 86 CALM 30.27F BOONE FAIR 43 38 81 CALM 30.32F $$ NCZ021-022-025-041-071-084-088-200600- CENTRAL NORTH CAROLINA CITY SKY/WX TMP DP RH WIND PRES REMARKS CHARLOTTE FAIR 47 46 97 CALM 30.25S GREENSBORO FAIR 54 45 71 W6 30.22F WINSTON-SALEM FAIR 50 44 80 CALM 30.24F RALEIGH-DURHAM FAIR 49 48 97 CALM 30.22F FORT BRAGG FAIR 52 50 94 CALM 30.21F FAYETTEVILLE FAIR 56 53 90 CALM 30.21F BURLINGTON FAIR 50 47 89 SW3 30.22F LAURINBURG FAIR 50 49 96 CALM 30.23S $$ NCZ011-015-027-028-043-044-047-080-103-200600- NORTHEASTERN NORTH CAROLINA CITY SKY/WX TMP DP RH WIND PRES REMARKS ROCKY MT-WILSO FAIR 50 50 100 CALM 30.21S FOG GREENVILLE FOG 52 52 100 CALM 30.21F VSB 1/4 WASHINGTON FAIR 54 53 97 CALM 30.21S ELIZABETH CITY FAIR 57 57 100 SW5 30.20S MANTEO FAIR N/A N/A N/A CALM 30.20S CAPE HATTERAS FAIR 59 59 100 N3 30.19F $$ NCZ078-087-090-091-093-098-101-200600- SOUTHEASTERN NORTH CAROLINA CITY SKY/WX TMP DP RH WIND PRES REMARKS LUMBERTON FAIR 51 50 96 CALM 30.22 GOLDSBORO FAIR 53 51 93 CALM 30.20S FOG KINSTON FAIR 51 50 97 CALM 30.22S KENANSVILLE FAIR 50 48 93 CALM 30.22S FOG NEW BERN FAIR 57 57 100 CALM 30.22S CHERRY POINT FOG 57 57 100 CALM 30.21F VSB 1/2 BEAUFORT FAIR 56 55 97 CALM 30.20S JACKSONVILLE FAIR 57 57 100 CALM 30.20F WILMINGTON FAIR 58 57 97 CALM 30.21F $$

USA.gov is the U.S. government's official web portal to all federal, state and local government web resources and services.